Wind_Speed
46 47 47 47 47 47 48 48 48 47 46 46 47 46 46 46 45 45 46 47 47 48 48 49 50 50 50 50 50 49 49 50 51 52 52 51 52 52
48 49 49 49 49 50 50 50 50 50 50 50 49 48 48 48 48 48 48 48 49 49 49 50 51 51 51 50 50 50 50 51 51 52 52 53 53 53
48 49 50 51 51 51 52 52 52 52 52 51 51 50 50 50 50 50 50 50 51 51 51 50 51 51 51 51 51 51 52 52 52 52 52 52 53 54
50 49 50 50 51 52 53 53 53 53 53 52 52 51 51 51 50 51 51 52 52 52 51 51 51 51 51 52 52 52 52 53 53 52 52 52 52 53
51 51 51 51 52 52 52 53 52 52 52 52 51 51 51 51 51 52 52 52 52 52 52 52 51 51 51 51 51 52 53 53 53 52 52 52 52 53
51 51 51 52 52 52 52 52 51 51 52 52 51 51 51 51 52 52 52 53 53 53 53 53 53 53 52 52 52 52 53 53 52 52 52 52 52 53
51 51 51 51 51 51 51 51 51 51 51 51 51 51 51 52 52 52 52 52 52 52 53 53 53 53 53 54 54 54 53 52 52 52 52 52 52 53
51 51 51 51 51 51 51 51 51 51 51 51 51 51 51 52 52 52 52 52 52 53 53 53 54 54 54 54 54 54 53 52 51 52 52 52 53 53
52 52 51 51 51 51 51 51 51 51 51 51 51 52 52 52 52 52 51 51 52 52 52 52 53 53 53 53 53 53 53 52 51 51 52 53 53 53
50 51 51 51 51 51 51 50 51 51 51 51 51 51 51 51 51 51 51 51 52 52 52 51 51 51 51 52 52 52 52 51 51 51 51 51 51 51
49 50 50 50 50 50 49 49 50 50 50 50 50 50 50 50 50 50 50 50 50 50 50 49 49 49 49 50 50 50 50 50 50 50 50 50 50 50
49 49 49 49 48 48 48 48 48 48 48 49 49 50 49 49 49 50 50 49 49 48 48 48 48 48 47 48 48 48 48 47 47 48 47 47 48 48
47 47 48 48 47 48 47 47 47 47 47 48 48 48 49 48 48 49 48 48 47 47 47 46 46 47 47 46 45 46 46 45 45 45 44 44 45 45
46 47 47 47 47 47 46 46 46 46 46 46 47 47 47 47 47 47 47 46 46 46 45 45 45 45 45 45 43 43 42 42 42 42 42 43 43 44
46 46 46 45 45 45 44 44 44 44 44 44 44 44 44 45 45 45 45 45 45 45 45 45 44 44 43 42 41 40 39 39 40 40 40 41 42 43
45 44 44 44 43 42 42 42 42 42 42 42 42 43 43 43 43 43 43 43 42 43 43 43 43 42 41 40 39 39 38 38 38 39 39 39 40 41
43 42 42 42 41 40 40 40 40 40 40 40 40 40 41 41 41 41 41 41 41 41 41 42 41 40 39 39 38 38 38 38 37 37 37 37 39 40
42 41 41 41 40 39 39 39 39 39 39 39 39 39 40 40 40 40 39 40 40 40 40 40 39 38 38 37 38 38 37 37 37 36 36 37 37 38
41 41 40 40 39 39 38 38 38 38 37 37 38 38 39 39 39 38 39 39 39 38 38 37 37 36 36 35 36 37 36 36 36 35 36 36 36 35
39 38 38 38 37 37 37 37 37 37 36 37 37 38 37 37 37 38 38 38 37 37 36 36 36 35 35 34 33 34 35 34 34 33 34 34 33 32
37 36 35 35 34 35 35 35 35 35 36 36 37 37 36 36 37 37 37 36 35 35 34 34 35 35 34 34 33 32 33 33 33 32 31 31 29 29
35 34 33 33 33 33 33 34 34 34 35 36 36 36 36 35 35 35 34 33 33 33 33 33 33 33 33 32 31 31 31 31 31 31 31 31 29 28
33 33 32 32 32 32 32 33 33 33 34 34 35 35 34 34 33 32 32 31 31 31 31 31 31 31 31 30 30 30 29 29 28 28 29 29 28 28
Wind_Direction
280 281 281 282 282 283 283 284 284 284 285 286 286 286 286 286 286 286 286 286 285 285 286 284 284 285 285 284 282 280 278 277 275 274 272 271 269 269
280 280 280 281 282 283 283 284 284 285 285 286 286 285 286 286 286 287 286 285 286 286 286 286 285 285 285 284 283 281 280 278 277 275 273 271 269 269
281 281 281 281 282 283 283 284 284 285 285 286 286 286 286 287 286 286 286 286 286 287 287 287 286 286 285 284 283 282 280 279 278 276 274 273 271 269
282 282 283 283 283 283 283 284 284 285 285 286 286 286 287 287 287 287 286 286 286 286 287 288 287 287 286 285 284 282 280 279 278 276 275 273 272 270
283 283 283 284 284 284 284 284 284 285 286 286 286 286 286 287 287 287 287 286 286 286 287 288 287 287 286 285 284 282 280 279 278 276 274 273 271 270
283 283 283 284 284 284 284 285 285 285 285 286 286 286 286 287 287 287 286 286 286 286 287 287 287 287 286 284 284 282 281 279 277 275 274 273 271 270
283 283 283 283 284 284 285 285 285 285 285 286 286 286 287 287 287 286 286 286 287 287 287 287 287 287 287 285 283 282 281 279 277 275 274 272 271 271
284 283 283 283 283 284 284 285 285 285 286 286 286 287 287 288 288 287 287 287 287 287 288 288 287 287 286 285 283 282 281 279 277 275 274 273 271 270
283 283 283 283 283 284 284 284 285 285 286 287 287 288 289 289 289 289 289 288 288 288 289 289 288 288 287 286 284 281 280 279 278 276 275 273 272 270
284 283 283 283 284 284 284 284 285 285 286 287 288 289 289 290 290 290 289 289 289 289 290 289 289 289 289 288 286 284 282 280 278 277 276 274 273 271
284 283 284 284 284 285 285 285 285 286 287 288 289 290 290 291 291 291 290 290 290 290 290 290 290 290 290 289 287 286 284 282 280 278 276 275 274 273
284 284 284 284 284 285 285 285 285 286 287 288 289 290 291 291 292 292 292 291 291 291 290 291 291 290 290 290 288 287 286 284 282 280 278 277 276 275
285 285 284 284 284 285 286 286 286 287 288 288 290 291 292 292 292 292 292 292 292 292 292 292 292 292 292 291 289 288 287 286 283 281 280 279 277 276
286 286 286 286 286 286 286 286 286 288 288 289 290 291 292 292 293 293 293 293 293 294 294 294 294 294 293 293 291 289 288 287 285 284 282 280 278 277
286 286 286 286 286 286 286 287 287 288 289 290 291 292 292 293 293 294 295 295 295 295 294 295 296 296 295 294 292 290 288 288 287 285 284 282 278 277
286 286 286 286 287 287 287 287 289 290 290 291 292 293 294 294 293 293 294 295 295 296 296 297 297 297 296 295 294 292 291 290 287 285 284 282 280 280
287 287 287 287 287 286 287 288 289 290 291 292 293 294 295 295 294 294 295 295 296 297 297 297 298 297 297 297 295 294 293 293 291 288 286 285 284 282
286 287 287 287 286 286 287 288 289 290 291 292 294 295 296 296 295 295 295 296 297 297 297 297 297 297 299 299 298 297 295 295 293 291 289 288 287 284
285 286 286 285 285 285 286 287 288 289 291 292 294 295 296 296 296 296 297 298 298 298 298 297 297 298 299 299 299 298 297 296 295 294 292 291 289 286
286 286 285 284 285 285 286 287 287 289 290 293 295 296 297 297 297 298 298 299 299 299 298 298 299 300 301 301 301 300 300 299 298 296 294 293 291 287
286 286 285 285 285 285 286 287 287 288 290 293 295 296 296 297 298 299 300 300 300 300 299 299 301 302 302 302 301 301 302 302 301 299 298 296 292 288
285 284 284 284 286 287 288 288 289 290 292 294 295 296 297 298 299 300 301 301 301 301 300 301 302 303 303 302 302 302 303 303 302 302 301 301 298 294
284 283 282 284 286 288 289 290 291 292 293 295 295 296 297 299 300 301 301 302 302 302 303 303 304 305 305 304 304 304 304 304 303 302 302 302 301 299
Height
5706 5705 5703 5701 5699 5697 5696 5694 5693 5691 5689 5686 5683 5680 5677 5675 5672 5670 5667 5665 5662 5660 5657 5655 5652 5650 5647 5645 5642 5640 5639 5638 5638 5637 5637 5637 5638 5639
5695 5693 5691 5689 5687 5685 5683 5681 5679 5678 5676 5673 5670 5667 5665 5662 5660 5657 5654 5652 5649 5646 5644 5641 5638 5636 5633 5630 5627 5626 5624 5623 5623 5622 5622 5622 5622 5622
5682 5681 5679 5677 5675 5673 5670 5668 5666 5664 5663 5660 5657 5654 5652 5649 5646 5644 5641 5638 5635 5632 5630 5627 5624 5621 5618 5615 5613 5611 5610 5608 5607 5606 5606 5606 5606 5606
5670 5668 5666 5664 5662 5659 5657 5655 5653 5650 5648 5646 5643 5640 5638 5635 5632 5629 5626 5624 5621 5618 5615 5613 5610 5607 5604 5601 5598 5596 5594 5593 5592 5591 5591 5590 5590 5590
5657 5655 5653 5651 5648 5646 5644 5641 5639 5636 5634 5632 5629 5626 5623 5621 5618 5615 5612 5609 5606 5603 5601 5598 5595 5592 5589 5586 5583 5581 5579 5577 5576 5575 5575 5574 5574 5574
5643 5641 5639 5637 5635 5632 5630 5627 5625 5622 5620 5617 5615 5612 5609 5606 5604 5601 5598 5594 5592 5588 5585 5582 5579 5576 5573 5570 5567 5565 5563 5561 5559 5559 5558 5558 5558 5558
5630 5628 5625 5623 5621 5618 5616 5614 5611 5608 5606 5603 5601 5598 5595 5592 5589 5586 5583 5580 5577 5574 5571 5567 5564 5560 5557 5553 5550 5548 5546 5544 5543 5542 5542 5541 5541 5541
5616 5614 5612 5609 5607 5604 5602 5600 5597 5595 5592 5589 5586 5583 5580 5577 5574 5571 5568 5566 5563 5560 5556 5552 5548 5545 5541 5537 5534 5531 5529 5527 5526 5525 5525 5524 5524 5524
5602 5600 5598 5595 5593 5590 5588 5585 5583 5580 5578 5575 5572 5569 5566 5563 5560 5557 5553 5550 5546 5543 5540 5537 5532 5528 5524 5520 5517 5514 5512 5511 5509 5508 5507 5507 5507 5507
5588 5586 5584 5581 5579 5576 5574 5571 5569 5566 5564 5561 5558 5555 5552 5548 5545 5542 5538 5535 5532 5527 5524 5522 5517 5513 5509 5504 5500 5497 5496 5494 5492 5491 5490 5489 5489 5489
5574 5572 5570 5567 5565 5563 5561 5558 5555 5552 5549 5546 5544 5540 5537 5534 5531 5527 5524 5520 5517 5513 5509 5506 5503 5499 5495 5490 5485 5481 5479 5477 5476 5474 5473 5472 5471 5471
5561 5558 5556 5553 5551 5548 5546 5544 5541 5538 5536 5533 5530 5526 5523 5520 5516 5513 5510 5506 5502 5499 5495 5492 5488 5484 5482 5478 5472 5467 5464 5462 5460 5458 5456 5455 5454 5453
5547 5545 5542 5540 5537 5535 5532 5530 5528 5525 5522 5519 5516 5513 5510 5507 5503 5499 5496 5492 5488 5485 5481 5478 5474 5470 5466 5464 5460 5454 5450 5447 5445 5443 5441 5440 5438 5437
5534 5532 5529 5527 5524 5522 5519 5517 5514 5512 5509 5507 5504 5501 5497 5494 5490 5486 5482 5479 5475 5471 5468 5464 5461 5457 5453 5449 5446 5442 5438 5434 5432 5430 5428 5426 5424 5422
5521 5519 5516 5514 5511 5509 5507 5504 5502 5499 5497 5494 5491 5488 5485 5481 5478 5474 5471 5467 5463 5458 5455 5451 5447 5443 5439 5435 5432 5429 5426 5423 5419 5417 5414 5412 5410 5408
5508 5506 5503 5501 5499 5497 5494 5492 5490 5488 5485 5483 5479 5476 5473 5469 5466 5463 5459 5455 5451 5447 5442 5438 5434 5431 5426 5422 5419 5416 5413 5410 5408 5404 5402 5399 5396 5394
5496 5493 5491 5489 5487 5485 5483 5481 5479 5476 5474 5471 5468 5465 5461 5458 5454 5451 5447 5444 5440 5436 5432 5427 5423 5419 5415 5411 5407 5404 5401 5398 5394 5392 5389 5387 5383 5381
5483 5481 5479 5477 5475 5473 5472 5470 5468 5465 5463 5460 5457 5454 5450 5447 5443 5439 5436 5432 5429 5425 5420 5416 5412 5409 5405 5400 5395 5392 5389 5386 5383 5379 5376 5374 5371 5368
5471 5469 5467 5465 5464 5462 5460 5459 5456 5454 5452 5449 5446 5443 5440 5436 5433 5429 5425 5421 5417 5413 5409 5405 5401 5398 5394 5391 5386 5381 5378 5375 5371 5368 5365 5362 5359 5356
5459 5458 5456 5454 5452 5451 5449 5448 5446 5443 5441 5438 5436 5432 5429 5426 5422 5418 5414 5411 5407 5403 5399 5395 5391 5387 5383 5380 5376 5372 5367 5364 5361 5357 5354 5351 5348 5345
5448 5446 5445 5443 5442 5440 5439 5437 5435 5433 5430 5428 5425 5422 5418 5415 5412 5408 5404 5400 5396 5393 5389 5385 5381 5377 5373 5370 5366 5363 5358 5354 5350 5346 5343 5340 5338 5335
5437 5436 5434 5433 5432 5430 5428 5427 5425 5422 5420 5418 5415 5411 5408 5405 5401 5398 5394 5390 5387 5383 5380 5376 5372 5368 5364 5360 5357 5353 5350 5346 5341 5336 5332 5329 5326 5324
5427 5425 5424 5423 5422 5420 5419 5417 5415 5412 5410 5407 5404 5401 5398 5395 5392 5388 5385 5381 5378 5374 5371 5367 5363 5359 5355 5352 5348 5344 5341 5337 5333 5330 5326 5321 5318 5314